Home > Time Zones > World Clock > Weather > Cuba > Havana > Past weeks

Flag for Cuba Weather past 2 weeks in Havana, Cuba

Now
77 °F

Passing clouds.


Feels Like: 78 °F
Forecast: 79 / 90 °F
Wind: 1 mph from North

Location: Aeropuerto Jose Marti - Rancho-Boyeros - Habana

Current Time: Jul 22, 2014 at 10:46:16 PM

Latest Report: Jul 22, 2014 at 9:55 PM


Visibility: 6 mi

Pressure: 30.09 "Hg

Humidity: 83%

Dew point: 72 °F

Location of HavanaLocation

Historic Weather in Havana — Graph

°F

Havana temperature yesterday

Maximum temperature yesterday: 91 °F (at 2:55 PM)
Minimum temperature yesterday: 73 °F (at 4:55 AM)
Average temperature yesterday: 77 °F

Past Weeks' High & Low Weather Summary

 TemperatureHumidityPressure
High93 °F (Jul 12, 2:55 PM)94% (Jul 7, 10:55 PM)30.15 "Hg (Jul 7, 10:55 PM)
Low70 °F (Jul 13, 1:55 AM)38% (Jul 12, 1:55 PM)29.98 "Hg (Jul 15, 6:55 PM)
Average80 °F73%30.06 "Hg
* Reported Jul 7 8:55 PM — Jul 22 8:55 PM, Havana, Weather by CustomWeather, © 2014

Note: Actual official high and low records may vary slightly from our data, if they occured in-between our weather recording intervals... More about our weather records

Advertising

Havana weather history for previous 24 hours

 ConditionsComfort  
Time TempWeatherWind HumidityBarometerVisibility
8:55 PM
Jul 22
79 °FPartly sunny.6 mph84%30.07 "Hg6 mi
7:55 PM79 °FPartly sunny.No wind84%30.04 "Hg6 mi
12:55 PM90 °FPartly sunny.2 mph55%30.07 "HgN/A
11:55 AM86 °FPartly sunny.2 mph62%30.07 "HgN/A
10:55 AM86 °FScattered clouds.2 mph62%30.09 "HgN/A
9:55 AM84 °FPassing clouds.2 mph70%30.09 "Hg6 mi
8:55 AM82 °FClear.1 mph74%30.07 "Hg6 mi
7:55 AM75 °FPassing clouds.2 mph83%30.04 "Hg6 mi
6:55 AM72 °FPassing clouds.2 mph88%30.04 "Hg6 mi
5:55 AM72 °FPassing clouds.No wind88%30.01 "Hg6 mi
4:55 AM72 °FPassing clouds.2 mph88%30.01 "Hg6 mi
3:55 AM73 °FPassing clouds.2 mph78%30.01 "Hg6 mi
2:55 AM72 °FPassing clouds.No wind88%30.04 "Hg6 mi
1:55 AM73 °FPassing clouds.No wind89%30.04 "Hg6 mi
12:55 AM73 °FPassing clouds.No wind89%30.07 "Hg6 mi
11:55 PM
Jul 21
73 °FPassing clouds.1 mph89%30.07 "Hg6 mi
10:55 PM73 °FPassing clouds.3 mph89%30.07 "Hg6 mi
Weather by CustomWeather, © 2014

See weather overviewHow to use our weather pages